星链-5018 (STARLINK-5018 )

导读 | 星芒AI

STARLINK-5018 是 SpaceX 星链计划中的一颗低轨道通信卫星,属于第 50 批发射的星链卫星群。该卫星旨在为全球用户提供高速互联网服务,尤其关注网络覆盖不足的地区。它运行在约 550 公里的高度,采用先进通信技术,支持宽带数据传输。星链项目通过部署数千颗此类卫星,构建全球性卫星互联网系统,提升远程通信能力。STARLINK-5018 的成功运行有助于增强星链网络的稳定性和覆盖范围。

基本信息
目录编号:
53929
目录名称:
STARLINK-5018
国际标识:
2022-119AV
轨道中心:
EARTH
卫星名称:
星链-5018
卫星全名:
星链-5018 (STARLINK-5018 )
卫星状态:
在轨 (已飞行1184 天)
发射日期:
2022-09-24 UTC
国别 :
美国 (US)
星等 :
--
轨道信息
数据来源 国际轨道数据
星历时间: 2025-12-21T08:35:42+0800
9小时前
查看轨道信息
半长轴: 6917.892km
偏心率: 0.0001545
轨道倾角: 53.218°
近地点辐角 90.447°
升交点赤经 307.634°
平近点角 269.670°
近地点: 538.686km
远地点: 540.824km
周期: 95.438分钟
每日圈数: 15.088365
详细信息
固有亮度:
5
最大亮度:
2.5
卫星平台:
Starlink v1.5
覆盖范围:
全球
运营商:
太空探索技术公司
运营商所在国:
美国
制造商(研发单位):
太空探索技术公司
制造商所在国:
美国
使用方式:
暂无
卫星简介
星链(Starlink)计划是由太空探索技术公司(SpaceX)提出的一个巨型低轨卫星互联网星座项目,计划在2019年至2024年间在太空搭建由约1.2万颗卫星组成的“星链”网络,其中1584颗将部署在地球上空550千米处的近地轨道,并从2020年开始工作。该卫星仍在工作。
2D轨道图
3D轨道图
轨道高度分析图
轨道倾角分析图
轨道综合分析图
查看轨道综合分析图